Starlink 31895

operational
NORAD ID: 59849 Int'l Des: 2024-097 Owner: SPXS Country: US Constellation: starlink
LEOCIRCULAR

About Starlink 31895

Description loading...

Live Position

Loading 3D Globe...

Upcoming Passes

Altitude History

Altitude vs Time

uPlot chart will show altitude changes over time

Two-Line Element Set

1 59849U 24097Q 25351.07692802 -.00004092 00000-0 -13922-3 0 9994
2 59849 43.0060 20.7959 0001597 270.5161 89.5508 15.27584248 89284
Epoch: Dec 17, 2025 • Age: 16 hours

Current Status

Altitude 483.5 km
Velocity 7.63 km/s
Sub-Earth Point 25.10°N, 54.85°E
Launch Date May 23, 2024
Age 1.5 years
Type internet

Technical Details

Classification Payload
Mass 730.00 kg
Dry Mass 700.00 kg
Total Mass 730.00 kg
Length 0.30 m
Diameter 4.10 m
Span 29.00 m
Shape Box + pan
Manufacturer SPXS
Bus Type Starlink V2M
Phase Status In Orbit
Owner/State SPXS/US

Large Constellations

Loading constellations...